Aérodrome :
LOGIN :

S'inscrire | Disclaimer

   EN    FR    IT 

 










Légende :    VFR   VFR Marginal   IFR   IFR Intensif   IFR Très Intensif
Visi : 
Plafond : 
>= 8 km
>= 3000ft
5 à 8 km
1000 à 3000 ft
1500m à 5 km
500 à 1000 ft
800 à 1500m
200 à 500 ft
< 800m
< 200 ft
Symboles :   Orages  Brouillard  Fortes neiges  Fortes précipitations  Vent > 20 kt
SIGMETs :   Divers  Orages  Givrage  Turbulence  Onde Orograph.  Cendres Volcan.






- Altitude de l'aérodrome : 265 ft


LFMC - Le Luc

DERNIER METAR :
  • 022200Z AUTO 21004KT 180V240 9999 ////// 05/M01 Q1008

METARs EXPIRÉS :
  • 022130Z AUTO 22005KT 180V260 9999 ////// 05/M01 Q1008
  • 022100Z AUTO 21003KT 180V250 9999 ////// 05/M01 Q1008
  • 022030Z AUTO 24005KT 9999 ////// 06/M00 Q1008
  • 022000Z AUTO 24006KT 9999 ////// 06/00 Q1008
  • 021930Z AUTO 25006KT 9999 ////// 07/00 Q1008

TAF N/A



MET'MAP, la Météo Aéronautique d'un coup d'oeil ! - Copyright ORBIFLY Décembre 2007 - Disclaimer

ORBIFLY MET'MAP TEAM :

Programmation & Développement : Alexandra Zaïnal
Sur une idée originale de : Baudouin d'Aumeries
Assistance à la programmation : Marc-Olivier Méhu
Soutien technique & logistique : Manuel Goepfert

Contact : metmap@orbifly.com




SOURCES & CREDITS :

   NOAA